Regional Weather Roundup
Issued by NWS

Home | Current Version | Previous Version | Graphics & Text | Print | Product List | Glossary On
Versions: 1 2 3 4 5 6 7 8 9 10 11 12 13 14 15 16 17 18 19 20 21 22 23 24 25 26 27 28 29 30 31 32 33 34 35 36 37 38 39 40 41 42 43 44 45 46 47 48 49 50
379
ASUS43 KIND 231259
RWRIN

WEATHER ROUNDUP FOR INDIANA
NATIONAL WEATHER SERVICE INDIANAPOLIS IN
800 AM EST THU FEB 23 2017

NOTE: "FAIR" INDICATES FEW OR NO CLOUDS BELOW 12,000 FEET WITH NO
SIGNIFICANT WEATHER AND/OR OBSTRUCTIONS TO VISIBILITY.

* - STATION DOES NOT REPORT WEATHER SUCH AS PRECIPITATION OR FOG.

+ - STATION NOT QUALITY CONTROLLED BY THE NATIONAL WEATHER SERVICE.
    USE DATA WITH CAUTION...ESPECIALLY DEWPOINT AND RELATIVE
    HUMIDITY OBSERVATIONS.

INZ001>003-010>013-019-020-231400-
NORTHWEST INDIANA

CITY           SKY/WX    TMP DP  RH WIND       PRES   REMARKS
GARY /AIRPORT/ PTCLDY    43  41  93 W5        29.74R
KNOX *+          N/A     41  36  81 SW3       29.73S VSB<1/4
LA PORTE +     FOG       37  37 100 CALM      29.74R VSB<1/4
MICHIGAN CITY+ CLEAR     46  46 100 CALM      29.74R
MONTICELLO +   FOG       44  43  95 CALM      29.74S VSB 1/4
RENSSELAER +   FOG       45  45 100 CALM      29.75R VSB<1/4

$$

LMZ046-743>745-231400-
SOUTHERN LAKE MICHIGAN

STATION/POSITION TIME  TEMP    WIND        PRES    WAVE
                       AIR SEA DIR/SP/G            HT
                 (UTC) (F)     (DEG/KT/KT) (MB)    (FT)
BURNS HARBOR     1240   46     290/  8/ 10 1007.5R
MICHIGAN CITY    1230   46     240/ 11/ 11   N/A

$$

INZ004-005-014>016-021>024-231400-
NORTH CENTRAL INDIANA

CITY           SKY/WX    TMP DP  RH WIND       PRES   REMARKS
ELKHART        FOG       46  45  93 W3        29.73R VSB 1/4
GOSHEN         FOG       48  45  89 SW3       29.73R VSB 1/4
PERU/GRISSOM   FOG       48  48 100 SW6       29.74R VSB 1
SOUTH BEND     FOG       44  44 100 SW5       29.73S VSB 1/2
WARSAW +       CLEAR     50  48  93 W5        29.73R FOG

$$

INZ006>009-017-018-025>027-231400-
NORTHEAST INDIANA

CITY           SKY/WX    TMP DP  RH WIND       PRES   REMARKS
ANGOLA *+      CLEAR     52  43  71 W6        29.72R
AUBURN +       CLEAR     52  50  93 CALM      29.74R FOG
FORT WAYNE     MOCLDY    52  50  93 SW8       29.74R FOG
KENDALLVILLE + CLEAR     50  50 100 W8        29.73R FOG

$$

INZ028-029-035-036-043>045-051>053-231400-
WEST CENTRAL INDIANA

CITY           SKY/WX    TMP DP  RH WIND       PRES   REMARKS
LAFAYETTE      FOG       48  48 100 CALM      29.74S VSB<1/4
TERRE HAUTE    CLEAR     50  49  96 S6        29.75F

$$

INZ030>032-037>040-046>048-054>057-064-065-231400-
CENTRAL INDIANA

CITY           SKY/WX    TMP DP  RH WIND       PRES   REMARKS
CP ATTERBURY + MOCLDY    54  52  94 SW5       29.78S
COLUMBUS       CLEAR     54  54 100 S7        29.79R
FRANKFORT +    FOG       51  51  97 CALM      29.76S VSB 3/4
GREENWOOD *+     N/A     51  51 100 S6        29.78R VSB 1/2
INDIANAPOLIS   PTCLDY    51  51 100 SW7       29.76S FOG
-EAGLE CREEK   PTCLDY    52  50  93 CALM      29.75S FOG
KOKOMO +       CLEAR     50  50 100 SW6       29.76R FOG
MT COMFORT *+    N/A     50  50 100 S7        29.77S VSB 1/2
SHELBYVILLE    PTCLDY    55  51  86 S9        29.78R FOG

$$

INZ033-034-041-042-049-050-058-059-231400-
EAST CENTRAL INDIANA

CITY           SKY/WX    TMP DP  RH WIND       PRES   REMARKS
MUNCIE         CLEAR     56  53  90 SW6       29.76R FOG

$$

INZ060-061-067>069-081>083-085>088-231400-
SOUTHWEST INDIANA

CITY           SKY/WX    TMP DP  RH WIND       PRES   REMARKS
EVANSVILLE     CLEAR     52  50  93 CALM      29.80S
HUNTINGBURG *+ CLOUDY    57  54  88 SE6       29.81S

$$

INZ062-063-066-070>080-084-089>092-231400-
SOUTH CENTRAL AND SOUTHEAST INDIANA

CITY           SKY/WX    TMP DP  RH WIND       PRES   REMARKS
BLOOMINGTON    PTCLDY    56  52  86 S8        29.78S
MADISON *+     CLOUDY    57  54  88 S6        29.84R
SEYMOUR +      MOCLDY    57  55  94 S5        29.80R

$$





USA.gov is the U.S. government's official web portal to all federal, state and local government web resources and services.